Regional Weather Roundup
Issued by NWS Newport/Morehead, NC

Current Version | Previous Version | Text Only | Print | Product List | Glossary On
Versions: 1 2 3 4 5 6 7 8 9 10 11 12 13 14 15 16 17 18 19 20 21 22 23 24 25 26 27 28 29 30 31 32 33 34 35 36 37 38 39 40 41 42 43 44 45 46 47 48 49 50
000
ASUS42 KMHX 312010
RWRMHX
WEATHER ROUNDUP FOR EASTERN NORTH CAROLINA
NATIONAL WEATHER SERVICE NEWPORT/MOREHEAD CITY NC
400 PM EDT FRI OCT 31 2014

NOTE: "FAIR" INDICATES FEW OR NO CLOUDS BELOW 12,000 FEET
WITH NO SIGNIFICANT WEATHER AND/OR OBSTRUCTIONS TO VISIBILITY

NCZ015>017-031-032-045>047-102-103-312100-
NORTH COAST

CITY           SKY/WX    TMP DP  RH WIND       PRES   REMARKS
EDENTON        CLOUDY    63  41  44 N10       29.79F
ELIZABETH CITY PTSUNNY   62  48  60 N13       29.79F
KITTY HAWK     CLOUDY    60  47  62 N6        29.76F
MANTEO         CLOUDY    60  48  64 N15       29.77F

$$

NCZ045>047-081-094-103-104-312100-
CENTRAL COAST

CITY           SKY/WX    TMP DP  RH WIND       PRES   REMARKS
FRISCO         SUNNY     62  51  67 N9G22     29.74F
SWANQUARTER      N/A     63 N/A N/A N9G16     29.74S

$$

NCZ095-097-098-100-101-312100-
SOUTHERN COAST

CITY           SKY/WX    TMP DP  RH WIND       PRES   REMARKS
BEAUFORT       PTSUNNY   64  50  60 NE16      29.76F
CEDAR ISLAND     N/A     63 N/A N/A VRB17     29.79F
JACKSONVILLE   SUNNY     66  42  41 N9        29.77F
PINEY ISLAND   MOCLDY    66  47  50 N16       29.76F
WILMINGTON     SUNNY     66  42  41 NW7       29.77F


$$

NCZ011>013-027>030-043-044-078>080-089-090>093-098-312100-
COASTAL PLAIN

CITY           SKY/WX    TMP DP  RH WIND       PRES   REMARKS
AHOSKIE        NOT AVBL
CLINTON        MOSUNNY   63  45  52 N5        29.81S
ELIZABETHTOWN  SUNNY     64  43  47 CALM      29.80F
GOLDSBORO      MOSUNNY   64  46  51 N7        29.79F
GREENVILLE     MOSUNNY   63  43  48 NE14      29.82F
HAVELOCK       PTSUNNY   64  45  49 NE13      29.78F
KENANSVILLE    MOSUNNY   62  40  43 N10       29.80F
KINSTON        MOSUNNY   64  41  42 N10G18    29.80
NEW BERN       SUNNY     66  42  41 N12       29.79F
RICHLANDS      SUNNY     63  39  42 N6        29.79S
ROCKY MOUNT    CLOUDY    61  41  47 N10       29.81F
WASHINGTON     PTSUNNY   63  42  46 NE8       29.79F
WHITEVILLE     MOSUNNY   65  43  43 NE7       29.78F

$$

AMZ130-135-150-152-154-156-158-170-250-252-270-ANZ085-086-088-633-658-670-312100-
MARINE OBSERVATIONS

STATION/POSITION TIME  TEMP    WIND        PRES    WAVE   SWELL
                       AIR SEA DIR/SP/G            HT/PER HT/PER
                 (UTC) (F)     (DEG/KT/KT) (MB)    (FT/S) (FT/S)
CHESAPEAKE LIGHT 1900   57      10/ 23/ 25 1009.7
64 E VA BEACH    2000   60 66   10/ 21/ 25 1007.1    5/ 6
DUCK             2000   60 65   20/ 14/ 17 1007.5
2 E DUCK         NOT AVBL
10 NE DUCK       2000      67                N/A     4/ 4
OREGON INLET     2000   61 65  350/ 13/ 18 1007.7
13E OREGON INLT  2000      68                N/A     6/ 6
HATTERAS CG      2000      64  360/ 21/ 25 1007.5
DIAMOND BUOY     2000   64     340/ 21/ 29 1006.4    6/ 7   2/ 9
17 S OCRACOKE    NOT AVBL
CAPE LOOKOUT     1900   62      10/ 14/ 17 1008.0
BEAUFORT LAB     2000      67   10/ 12/ 17 1007.2
30 SE NEW RIVER  2000   64 74   20/ 14/ 17 1006.9    4/ 5   2/ 9
5 SE WRIGHTSVLE  1900   62 71   40/ 12/ 14   N/A
225 S CAPE HAT   1909   74 78  250/ 10/ 12 1006.1    4/ 8   3/ 8
41 SE CHARLESTON 2000   66 76  350/ 12/ 17 1007.8    5/ 7   3/ 7

$$



USA.gov is the U.S. government's official web portal to all federal, state and local government web resources and services.